Retour au catalogue

ARIANE 2 DEB

ActifHEO
NORAD 26728·DEBRIS·🇫🇷 France

Lancé Jan 27, 1989 depuis Guiana Space Centre

Loading…

Prochains Passages (prochaines 24 heures)

TLE

FraisSource: Space-Track

Époque: Sep 13, 2026, 21:53 UTC

1 26728U 89006F   26256.91205882 -.00000035  00000-0  29485-3 0  9994
2 26728   7.6002 164.3432 7018975 254.8236  23.5710  2.49779279222406

Suivez ARIANE 2 DEB en temps réel avec AllMySat

Download on the App Store